Dewpoint
28 31 33 38 44 51 55 56 56 55 54 53 53 52 51 50 49 48 48 44 42 33
27 28 31 34 39 46 55 57 56 55 54 53 53 52 51 50 49 49 49 47 46 42
25 27 30 33 38 43 51 57 56 55 54 53 53 52 51 51 50 50 49 48 45 43
25 26 28 32 36 42 47 56 55 55 54 53 53 52 52 52 51 49 48 47 43 39
24 25 26 29 32 39 44 56 56 55 54 54 53 53 52 51 50 49 47 45 41 38
23 24 24 26 30 34 40 54 55 55 54 54 53 52 52 51 49 48 46 44 41 39
21 23 23 24 28 32 38 49 54 54 54 54 53 52 52 51 49 47 46 43 41 40
20 22 23 23 27 30 34 41 54 54 54 54 53 52 51 50 48 46 45 42 41 40
19 20 22 22 25 29 33 39 53 53 53 52 52 51 50 49 47 46 44 43 42 42
18 18 20 21 24 27 31 36 49 52 52 51 51 50 49 48 47 45 44 43 40 38
16 17 19 20 22 25 29 33 38 51 51 51 51 49 48 47 47 44 43 41 38 37
16 16 18 19 21 24 27 30 35 48 50 50 50 48 47 46 46 44 43 42 40 38
16 16 17 19 21 24 27 29 33 37 49 49 49 47 46 46 46 44 43 41 40 39
16 16 18 20 22 23 26 28 32 36 44 48 49 46 46 45 46 44 42 40 39 39
Wind_Speed
19 17 18 20 18 18 20 23 29 30 30 31 30 29 28 25 23 25 21 24 19 17
20 19 18 21 24 19 21 16 26 30 28 29 30 32 33 29 29 27 25 23 21 20
22 20 18 20 23 20 26 16 22 22 26 25 27 30 31 32 30 29 24 21 23 21
21 22 18 19 23 20 26 22 25 28 26 28 28 27 28 26 30 29 25 23 23 22
22 20 18 19 23 19 23 24 25 29 29 30 29 28 30 27 23 30 30 27 24 23
22 21 19 21 22 21 20 23 22 26 29 29 30 29 29 28 26 28 27 28 28 26
22 22 21 23 24 21 20 22 27 25 27 25 26 27 28 27 25 26 26 25 25 26
23 21 21 23 23 21 19 24 29 28 28 29 28 26 27 27 26 25 23 22 22 21
22 22 21 23 24 23 18 22 24 29 27 27 27 31 33 31 27 25 25 25 23 21
21 21 21 22 24 23 16 19 17 27 28 29 29 32 34 34 27 28 27 25 25 23
24 24 22 23 24 23 16 18 11 24 27 28 28 34 37 36 28 26 27 27 27 28
24 24 23 23 26 25 18 19 10 16 27 25 24 33 39 36 28 25 26 25 25 26
22 21 22 22 25 22 19 19 15 12 23 30 28 35 39 39 27 25 23 22 22 27
22 21 19 20 21 21 21 17 17 9 9 25 26 29 41 43 29 27 25 24 22 22
Wind_Direction
306 293 291 286 281 281 255 181 172 171 169 169 167 165 167 180 177 177 184 193 195 200
306 304 294 294 282 266 259 205 180 174 178 180 174 173 177 178 183 185 189 198 202 212
303 297 296 293 283 273 270 219 177 176 172 177 179 182 184 182 182 187 191 191 197 207
308 305 307 298 286 266 276 218 194 177 176 176 181 185 187 194 174 180 181 188 191 192
309 308 311 303 289 290 277 215 199 184 181 179 181 183 185 181 182 181 182 184 185 190
311 314 314 306 295 288 277 218 195 185 184 182 184 185 189 186 181 182 184 185 184 192
314 314 316 309 296 288 282 255 191 187 178 184 189 185 188 186 184 186 188 190 188 191
312 315 316 311 305 299 292 283 189 188 189 189 188 187 187 185 183 183 186 186 187 190
315 321 317 318 311 299 293 274 198 186 186 188 191 190 188 183 182 182 185 185 190 190
317 317 318 322 311 299 304 284 227 186 185 193 193 187 187 186 186 183 188 188 190 187
322 318 323 328 313 303 312 293 297 189 188 192 193 184 185 184 184 186 189 188 187 185
318 321 323 321 312 309 314 299 278 224 179 188 193 185 184 181 186 187 188 189 187 184
313 318 316 313 311 307 304 295 285 287 185 193 190 184 186 184 188 186 184 187 185 181
318 310 308 311 307 308 304 296 278 249 225 182 184 187 187 186 188 186 180 183 181 180